Time,TemperatureF,DewpointF,PressureIn,WindDirection,WindDirectionDegrees,WindSpeedMPH,WindSpeedGustMPH,Humidity,HourlyPrecipIn,Conditions,Clouds,dailyrainin,SolarRadiationWatts/m^2,SoftwareType,DateUTC
2013-02-02 00:00:00,1.8,-4.3,30.06,NE,56,1.0,1.0,75,0.00,,---,0.00,0.00,VWS V14.00,2013-02-02 06:00:00,
2013-02-02 00:05:00,1.8,-4.3,30.06,NE,56,1.0,1.0,75,0.00,,---,0.00,0.00,VWS V14.00,2013-02-02 06:05:00,
2013-02-02 00:10:00,1.8,-4.3,30.06,North,0,1.0,1.0,75,0.00,,---,0.00,0.00,VWS V14.00,2013-02-02 06:10:00,
2013-02-02 00:15:00,1.8,-4.3,30.06,North,8,0.0,0.0,75,0.00,,---,0.00,0.00,VWS V14.00,2013-02-02 06:15:00,
2013-02-02 00:20:00,1.8,-4.3,30.06,North,359,2.0,2.0,75,0.00,,---,0.00,0.00,VWS V14.00,2013-02-02 06:20:00,
2013-02-02 00:25:00,1.8,-4.3,30.06,NNW,346,1.0,1.0,75,0.00,,---,0.00,0.00,VWS V14.00,2013-02-02 06:25:00,
2013-02-02 00:30:00,1.8,-4.3,30.07,North,359,1.0,1.0,75,0.00,,---,0.00,0.00,VWS V14.00,2013-02-02 06:30:00,
2013-02-02 00:35:00,1.7,-4.4,30.07,North,0,2.0,2.0,75,0.00,,---,0.00,0.00,VWS V14.00,2013-02-02 06:35:00,
2013-02-02 00:40:00,1.7,-4.4,30.07,North,3,1.0,1.0,75,0.00,,---,0.00,0.00,VWS V14.00,2013-02-02 06:40:00,
2013-02-02 00:45:00,1.7,-4.4,30.07,North,6,2.0,2.0,75,0.00,,---,0.00,0.00,VWS V14.00,2013-02-02 06:45:00,
2013-02-02 00:50:00,1.7,-4.4,30.07,NE,45,2.0,2.0,75,0.00,,---,0.00,0.00,VWS V14.00,2013-02-02 06:50:00,
2013-02-02 00:55:00,1.7,-4.4,30.07,North,0,3.0,3.0,75,0.00,,---,0.00,0.00,VWS V14.00,2013-02-02 06:55:00,
2013-02-02 01:00:00,1.7,-4.4,30.07,NNW,333,1.0,1.0,75,0.00,,---,0.00,0.00,VWS V14.00,2013-02-02 07:00:00,
2013-02-02 01:05:00,1.7,-4.4,30.07,NE,37,2.0,2.0,75,0.00,,---,0.00,0.00,VWS V14.00,2013-02-02 07:05:00,
2013-02-02 01:10:00,1.7,-4.4,30.07,NNE,18,5.0,5.0,75,0.00,,---,0.00,0.00,VWS V14.00,2013-02-02 07:10:00,
2013-02-02 01:15:00,1.7,-4.4,30.07,North,0,2.0,2.0,75,0.00,,---,0.00,0.00,VWS V14.00,2013-02-02 07:15:00,
2013-02-02 01:20:00,1.7,-4.4,30.07,NE,34,2.0,2.0,75,0.00,,---,0.00,0.00,VWS V14.00,2013-02-02 07:20:00,
2013-02-02 01:25:00,1.7,-4.4,30.07,NNE,14,1.0,1.0,75,0.00,,---,0.00,0.00,VWS V14.00,2013-02-02 07:25:00,
2013-02-02 01:30:00,1.5,-4.6,30.07,NNE,28,1.0,1.0,75,0.00,,---,0.00,0.00,VWS V14.00,2013-02-02 07:30:00,
2013-02-02 01:35:00,1.5,-4.6,30.07,North,1,2.0,2.0,75,0.00,,---,0.00,0.00,VWS V14.00,2013-02-02 07:35:00,
2013-02-02 01:40:00,1.5,-4.6,30.07,North,0,1.0,1.0,75,0.00,,---,0.00,0.00,VWS V14.00,2013-02-02 07:40:00,
2013-02-02 01:45:00,1.5,-4.6,30.07,NNW,333,2.0,2.0,75,0.00,,---,0.00,0.00,VWS V14.00,2013-02-02 07:45:00,
2013-02-02 01:50:00,1.5,-4.6,30.07,NNW,344,2.0,2.0,75,0.00,,---,0.00,0.00,VWS V14.00,2013-02-02 07:50:00,
2013-02-02 01:55:00,1.5,-4.6,30.07,North,3,2.0,2.0,75,0.00,,---,0.00,0.00,VWS V14.00,2013-02-02 07:55:00,
2013-02-02 02:00:00,1.5,-4.6,30.08,North,0,2.0,2.0,75,0.00,,---,0.00,0.00,VWS V14.00,2013-02-02 08:00:00,
2013-02-02 02:05:00,1.5,-4.8,30.08,North,3,1.0,1.0,74,0.00,,---,0.00,0.00,VWS V14.00,2013-02-02 08:05:00,
2013-02-02 02:10:00,1.5,-4.6,30.08,North,6,1.0,1.0,75,0.00,,---,0.00,0.00,VWS V14.00,2013-02-02 08:10:00,
2013-02-02 02:15:00,1.5,-4.6,30.08,North,357,2.0,2.0,75,0.00,,---,0.00,0.00,VWS V14.00,2013-02-02 08:15:00,
2013-02-02 02:20:00,1.5,-4.6,30.08,North,0,2.0,2.0,75,0.00,,---,0.00,0.00,VWS V14.00,2013-02-02 08:20:00,
2013-02-02 02:25:00,1.5,-4.6,30.08,NNE,24,2.0,2.0,75,0.00,,---,0.00,0.00,VWS V14.00,2013-02-02 08:25:00,
2013-02-02 02:30:00,1.5,-4.6,30.08,NNE,23,1.0,1.0,75,0.00,,---,0.00,0.00,VWS V14.00,2013-02-02 08:30:00,
2013-02-02 02:35:00,1.5,-4.6,30.08,NNW,346,0.0,2.0,75,0.00,,---,0.00,0.00,VWS V14.00,2013-02-02 08:35:00,
2013-02-02 02:40:00,1.5,-4.6,30.08,North,8,1.0,1.0,75,0.00,,---,0.00,0.00,VWS V14.00,2013-02-02 08:40:00,
2013-02-02 02:45:00,1.5,-4.6,30.09,NW,323,2.0,2.0,75,0.00,,---,0.00,0.00,VWS V14.00,2013-02-02 08:45:00,
2013-02-02 02:50:00,1.5,-4.6,30.09,NNW,343,1.0,1.0,75,0.00,,---,0.00,0.00,VWS V14.00,2013-02-02 08:50:00,
2013-02-02 02:55:00,1.5,-4.8,30.09,North,352,2.0,2.0,74,0.00,,---,0.00,0.00,VWS V14.00,2013-02-02 08:55:00,
2013-02-02 03:00:00,1.5,-4.8,30.09,NNW,333,1.0,4.0,74,0.00,,---,0.00,0.00,VWS V14.00,2013-02-02 09:00:00,
2013-02-02 03:05:00,1.5,-4.8,30.09,North,0,1.0,1.0,74,0.00,,---,0.00,0.00,VWS V14.00,2013-02-02 09:05:00,
2013-02-02 03:10:00,1.5,-4.8,30.09,NNE,23,2.0,2.0,74,0.00,,---,0.00,0.00,VWS V14.00,2013-02-02 09:10:00,
2013-02-02 03:15:00,1.5,-4.8,30.10,NNE,17,2.0,2.0,74,0.00,,---,0.00,0.00,VWS V14.00,2013-02-02 09:15:00,
2013-02-02 03:20:00,1.3,-5.0,30.10,North,1,2.0,3.0,74,0.00,,---,0.00,0.00,VWS V14.00,2013-02-02 09:20:00,
2013-02-02 03:25:00,1.3,-5.0,30.10,NNW,342,3.0,3.0,74,0.00,,---,0.00,0.00,VWS V14.00,2013-02-02 09:25:00,
2013-02-02 03:30:00,1.3,-5.0,30.10,NW,309,2.0,2.0,74,0.00,,---,0.00,0.00,VWS V14.00,2013-02-02 09:30:00,
2013-02-02 03:35:00,1.3,-5.0,30.10,North,357,1.0,1.0,74,0.00,,---,0.00,0.00,VWS V14.00,2013-02-02 09:35:00,
2013-02-02 03:40:00,1.3,-5.0,30.10,NNW,342,0.0,0.0,74,0.00,,---,0.00,0.00,VWS V14.00,2013-02-02 09:40:00,
2013-02-02 03:45:00,1.3,-5.0,30.11,NE,51,3.0,3.0,74,0.00,,---,0.00,0.00,VWS V14.00,2013-02-02 09:45:00,
2013-02-02 03:50:00,1.3,-5.0,30.11,NW,320,1.0,1.0,74,0.00,,---,0.00,0.00,VWS V14.00,2013-02-02 09:50:00,
2013-02-02 03:55:00,1.1,-5.2,30.11,NW,311,3.0,3.0,74,0.00,,---,0.00,0.00,VWS V14.00,2013-02-02 09:55:00,
2013-02-02 04:00:00,1.1,-5.2,30.12,North,1,2.0,2.0,74,0.00,,---,0.00,0.00,VWS V14.00,2013-02-02 10:00:00,
2013-02-02 04:05:00,1.1,-5.2,30.12,NW,318,3.0,3.0,74,0.00,,---,0.00,0.00,VWS V14.00,2013-02-02 10:05:00,
2013-02-02 04:10:00,1.1,-5.2,30.12,NNW,344,1.0,1.0,74,0.00,,---,0.00,0.00,VWS V14.00,2013-02-02 10:10:00,
2013-02-02 04:15:00,1.1,-5.2,30.12,WNW,298,1.0,1.0,74,0.00,,---,0.00,0.00,VWS V14.00,2013-02-02 10:15:00,
2013-02-02 04:20:00,1.1,-5.2,30.12,NNE,14,2.0,2.0,74,0.00,,---,0.00,0.00,VWS V14.00,2013-02-02 10:20:00,
2013-02-02 04:25:00,1.1,-5.2,30.12,North,0,3.0,3.0,74,0.00,,---,0.00,0.00,VWS V14.00,2013-02-02 10:25:00,
2013-02-02 04:30:00,1.1,-5.2,30.12,North,359,2.0,2.0,74,0.00,,---,0.00,0.00,VWS V14.00,2013-02-02 10:30:00,
2013-02-02 04:35:00,1.1,-5.2,30.12,North,4,3.0,3.0,74,0.00,,---,0.00,0.00,VWS V14.00,2013-02-02 10:35:00,
2013-02-02 04:40:00,1.1,-5.2,30.12,North,356,2.0,2.0,74,0.00,,---,0.00,0.00,VWS V14.00,2013-02-02 10:40:00,
2013-02-02 04:45:00,1.1,-5.2,30.13,North,0,2.0,2.0,74,0.00,,---,0.00,0.00,VWS V14.00,2013-02-02 10:45:00,
2013-02-02 04:50:00,1.1,-5.2,30.13,North,0,5.0,5.0,74,0.00,,---,0.00,0.00,VWS V14.00,2013-02-02 10:50:00,
2013-02-02 04:55:00,1.1,-5.2,30.13,North,0,3.0,3.0,74,0.00,,---,0.00,0.00,VWS V14.00,2013-02-02 10:55:00,
2013-02-02 05:00:00,1.3,-5.0,30.13,North,0,3.0,3.0,74,0.00,,---,0.00,0.00,VWS V14.00,2013-02-02 11:00:00,
2013-02-02 05:05:00,1.3,-5.0,30.13,NW,313,4.0,4.0,74,0.00,,---,0.00,0.00,VWS V14.00,2013-02-02 11:05:00,
2013-02-02 05:10:00,1.3,-5.0,30.13,NNW,346,3.0,3.0,74,0.00,,---,0.00,0.00,VWS V14.00,2013-02-02 11:10:00,
2013-02-02 05:15:00,1.3,-5.0,30.14,NW,319,2.0,3.0,74,0.00,,---,0.00,0.00,VWS V14.00,2013-02-02 11:15:00,
2013-02-02 05:20:00,1.3,-5.0,30.14,North,0,4.0,4.0,74,0.00,,---,0.00,0.00,VWS V14.00,2013-02-02 11:20:00,
2013-02-02 05:25:00,1.3,-5.0,30.14,North,353,3.0,3.0,74,0.00,,---,0.00,0.00,VWS V14.00,2013-02-02 11:25:00,
2013-02-02 05:30:00,1.3,-5.0,30.15,North,350,6.0,6.0,74,0.00,,---,0.00,0.00,VWS V14.00,2013-02-02 11:30:00,
2013-02-02 05:35:00,1.3,-5.0,30.15,North,350,1.0,1.0,74,0.00,,---,0.00,0.00,VWS V14.00,2013-02-02 11:35:00,
2013-02-02 05:40:00,1.1,-5.2,30.15,North,7,5.0,5.0,74,0.00,,---,0.00,0.00,VWS V14.00,2013-02-02 11:40:00,
2013-02-02 05:45:00,1.1,-5.2,30.15,North,0,3.0,3.0,74,0.00,,---,0.00,0.00,VWS V14.00,2013-02-02 11:45:00,
2013-02-02 05:50:00,1.1,-5.5,30.15,North,0,3.0,4.0,73,0.00,,---,0.00,0.00,VWS V14.00,2013-02-02 11:50:00,
2013-02-02 05:55:00,1.1,-5.5,30.15,North,0,6.0,6.0,73,0.00,,---,0.00,0.00,VWS V14.00,2013-02-02 11:55:00,
2013-02-02 06:00:00,1.1,-5.5,30.15,North,0,5.0,5.0,73,0.00,,---,0.00,0.00,VWS V14.00,2013-02-02 12:00:00,
2013-02-02 06:05:00,0.9,-5.7,30.15,North,349,1.0,1.0,73,0.00,,---,0.00,0.00,VWS V14.00,2013-02-02 12:05:00,
2013-02-02 06:10:00,0.9,-5.7,30.15,North,359,1.0,1.0,73,0.00,,---,0.00,0.00,VWS V14.00,2013-02-02 12:10:00,
2013-02-02 06:15:00,0.9,-5.7,30.15,North,0,3.0,3.0,73,0.00,,---,0.00,0.00,VWS V14.00,2013-02-02 12:15:00,
2013-02-02 06:20:00,0.9,-5.7,30.15,North,349,1.0,5.0,73,0.00,,---,0.00,0.00,VWS V14.00,2013-02-02 12:20:00,
2013-02-02 06:25:00,0.9,-5.7,30.15,North,356,2.0,2.0,73,0.00,,---,0.00,0.00,VWS V14.00,2013-02-02 12:25:00,
2013-02-02 06:30:00,0.9,-5.7,30.15,North,0,5.0,5.0,73,0.00,,---,0.00,0.00,VWS V14.00,2013-02-02 12:30:00,
2013-02-02 06:35:00,0.9,-5.7,30.15,NNW,343,1.0,3.0,73,0.00,,---,0.00,0.00,VWS V14.00,2013-02-02 12:35:00,
2013-02-02 06:40:00,0.7,-6.2,30.15,North,1,4.0,4.0,72,0.00,,---,0.00,0.00,VWS V14.00,2013-02-02 12:40:00,
2013-02-02 06:45:00,0.7,-6.2,30.15,NW,323,0.0,0.0,72,0.00,,---,0.00,0.00,VWS V14.00,2013-02-02 12:45:00,
2013-02-02 06:50:00,0.7,-6.2,30.15,North,0,4.0,4.0,72,0.00,,---,0.00,0.00,VWS V14.00,2013-02-02 12:50:00,
2013-02-02 06:55:00,0.5,-6.4,30.15,North,3,5.0,5.0,72,0.00,,---,0.00,0.00,VWS V14.00,2013-02-02 12:55:00,
2013-02-02 07:00:00,0.5,-6.4,30.16,NNW,347,5.0,5.0,72,0.00,,---,0.00,0.00,VWS V14.00,2013-02-02 13:00:00,
2013-02-02 07:05:00,0.5,-6.4,30.16,NE,34,1.0,3.0,72,0.00,,---,0.00,0.00,VWS V14.00,2013-02-02 13:05:00,
2013-02-02 07:10:00,0.3,-6.6,30.16,North,353,1.0,3.0,72,0.00,,---,0.00,0.00,VWS V14.00,2013-02-02 13:10:00,
2013-02-02 07:15:00,0.3,-6.6,30.17,North,0,1.0,1.0,72,0.00,,---,0.00,0.00,VWS V14.00,2013-02-02 13:15:00,
2013-02-02 07:20:00,0.3,-6.9,30.17,North,0,1.0,1.0,71,0.00,,---,0.00,0.00,VWS V14.00,2013-02-02 13:20:00,
2013-02-02 07:25:00,0.3,-6.9,30.17,North,0,1.0,1.0,71,0.00,,---,0.00,0.00,VWS V14.00,2013-02-02 13:25:00,
2013-02-02 07:30:00,0.1,-7.1,30.17,North,350,4.0,4.0,71,0.00,,---,0.00,0.00,VWS V14.00,2013-02-02 13:30:00,
2013-02-02 07:35:00,0.1,-7.1,30.17,North,0,1.0,1.0,71,0.00,,---,0.00,0.00,VWS V14.00,2013-02-02 13:35:00,
2013-02-02 07:40:00,0.7,-6.5,30.17,North,354,2.0,2.0,71,0.00,,---,0.00,0.00,VWS V14.00,2013-02-02 13:40:00,
2013-02-02 07:45:00,0.3,-6.9,30.17,North,0,0.0,0.0,71,0.00,,---,0.00,0.00,VWS V14.00,2013-02-02 13:45:00,
2013-02-02 07:50:00,0.1,-7.1,30.17,North,0,1.0,2.0,71,0.00,,---,0.00,0.00,VWS V14.00,2013-02-02 13:50:00,
2013-02-02 07:55:00,0.1,-7.1,30.17,NNE,13,3.0,3.0,71,0.00,,---,0.00,35.00,VWS V14.00,2013-02-02 13:55:00,
2013-02-02 08:00:00,0.1,-7.1,30.17,NNW,347,1.0,1.0,71,0.00,,---,0.00,53.00,VWS V14.00,2013-02-02 14:00:00,
2013-02-02 08:05:00,0.1,-7.1,30.17,North,357,2.0,2.0,71,0.00,,---,0.00,67.00,VWS V14.00,2013-02-02 14:05:00,
2013-02-02 08:10:00,0.1,-7.1,30.17,North,3,3.0,3.0,71,0.00,,---,0.00,67.00,VWS V14.00,2013-02-02 14:10:00,
2013-02-02 08:15:00,0.1,-7.1,30.17,North,349,1.0,2.0,71,0.00,,---,0.00,67.00,VWS V14.00,2013-02-02 14:15:00,
2013-02-02 08:20:00,0.3,-6.9,30.17,North,4,0.0,0.0,71,0.00,,---,0.00,67.00,VWS V14.00,2013-02-02 14:20:00,
2013-02-02 08:25:00,0.5,-6.7,30.17,North,0,1.0,2.0,71,0.00,,---,0.00,67.00,VWS V14.00,2013-02-02 14:25:00,
2013-02-02 08:30:00,0.5,-6.7,30.17,NNW,346,1.0,1.0,71,0.00,,---,0.00,67.00,VWS V14.00,2013-02-02 14:30:00,
2013-02-02 08:35:00,0.9,-6.3,30.17,North,349,0.0,0.0,71,0.00,,---,0.00,67.00,VWS V14.00,2013-02-02 14:35:00,
2013-02-02 08:40:00,1.1,-6.1,30.17,NNW,343,1.0,2.0,71,0.00,,---,0.00,67.00,VWS V14.00,2013-02-02 14:40:00,
2013-02-02 08:45:00,1.3,-5.9,30.18,NNE,31,2.0,2.0,71,0.00,,---,0.00,67.00,VWS V14.00,2013-02-02 14:45:00,
2013-02-02 08:50:00,1.5,-5.7,30.18,North,0,1.0,2.0,71,0.00,,---,0.00,67.00,VWS V14.00,2013-02-02 14:50:00,
2013-02-02 08:55:00,1.5,-6.9,30.18,NNW,328,0.0,1.0,67,0.00,,---,0.00,67.00,VWS V14.00,2013-02-02 14:55:00,
2013-02-02 09:00:00,1.7,-6.7,30.18,North,0,3.0,3.0,67,0.00,,---,0.00,67.00,VWS V14.00,2013-02-02 15:00:00,
2013-02-02 09:05:00,1.7,-6.7,30.18,North,4,1.0,3.0,67,0.00,,---,0.00,164.00,VWS V14.00,2013-02-02 15:05:00,
2013-02-02 09:10:00,1.7,-6.7,30.18,NNE,16,1.0,1.0,67,0.00,,---,0.00,164.00,VWS V14.00,2013-02-02 15:10:00,
2013-02-02 09:15:00,1.7,-6.7,30.18,NE,44,2.0,2.0,67,0.00,,---,0.00,164.00,VWS V14.00,2013-02-02 15:15:00,
2013-02-02 09:20:00,2.0,-6.4,30.18,NE,54,1.0,1.0,67,0.00,,---,0.00,164.00,VWS V14.00,2013-02-02 15:20:00,
2013-02-02 09:25:00,2.2,-6.2,30.18,NE,51,5.0,5.0,67,0.00,,---,0.00,164.00,VWS V14.00,2013-02-02 15:25:00,
2013-02-02 09:30:00,2.2,-6.2,30.18,North,357,1.0,1.0,67,0.00,,---,0.00,234.00,VWS V14.00,2013-02-02 15:30:00,
2013-02-02 09:35:00,2.2,-6.2,30.18,North,359,2.0,2.0,67,0.00,,---,0.00,208.00,VWS V14.00,2013-02-02 15:35:00,
2013-02-02 09:40:00,2.2,-6.2,30.18,North,10,2.0,2.0,67,0.00,,---,0.00,208.00,VWS V14.00,2013-02-02 15:40:00,
2013-02-02 09:45:00,2.4,-6.0,30.18,NE,34,1.0,1.0,67,0.00,,---,0.00,208.00,VWS V14.00,2013-02-02 15:45:00,
2013-02-02 09:50:00,2.6,-5.8,30.18,North,357,2.0,2.0,67,0.00,,---,0.00,264.00,VWS V14.00,2013-02-02 15:50:00,
2013-02-02 09:55:00,2.6,-5.8,30.18,NNW,335,1.0,1.0,67,0.00,,---,0.00,266.00,VWS V14.00,2013-02-02 15:55:00,
2013-02-02 10:00:00,2.8,-5.7,30.17,ENE,64,1.0,1.0,67,0.00,,---,0.00,266.00,VWS V14.00,2013-02-02 16:00:00,
2013-02-02 10:05:00,3.0,-5.5,30.17,North,4,2.0,2.0,67,0.00,,---,0.00,266.00,VWS V14.00,2013-02-02 16:05:00,
2013-02-02 10:10:00,3.4,-5.1,30.17,ENE,66,0.0,0.0,67,0.00,,---,0.00,266.00,VWS V14.00,2013-02-02 16:10:00,
2013-02-02 10:15:00,3.4,-7.7,30.17,East,85,3.0,3.0,59,0.00,,---,0.00,266.00,VWS V14.00,2013-02-02 16:15:00,
2013-02-02 10:20:00,3.9,-7.2,30.17,NE,35,2.0,2.0,59,0.00,,---,0.00,324.00,VWS V14.00,2013-02-02 16:20:00,
2013-02-02 10:25:00,3.9,-7.2,30.17,North,353,1.0,1.0,59,0.00,,---,0.00,347.00,VWS V14.00,2013-02-02 16:25:00,
2013-02-02 10:30:00,3.9,-7.2,30.16,NW,313,0.0,0.0,59,0.00,,---,0.00,347.00,VWS V14.00,2013-02-02 16:30:00,
2013-02-02 10:35:00,4.3,-6.8,30.16,East,95,1.0,1.0,59,0.00,,---,0.00,347.00,VWS V14.00,2013-02-02 16:35:00,
2013-02-02 10:40:00,5.0,-6.2,30.16,NE,40,0.0,0.0,59,0.00,,---,0.00,366.00,VWS V14.00,2013-02-02 16:40:00,
2013-02-02 10:45:00,5.0,-6.2,30.17,NE,48,0.0,0.0,59,0.00,,---,0.00,311.00,VWS V14.00,2013-02-02 16:45:00,
2013-02-02 10:50:00,5.0,-6.2,30.17,NNE,24,1.0,1.0,59,0.00,,---,0.00,311.00,VWS V14.00,2013-02-02 16:50:00,
2013-02-02 10:55:00,4.7,-6.5,30.17,North,359,1.0,1.0,59,0.00,,---,0.00,311.00,VWS V14.00,2013-02-02 16:55:00,
2013-02-02 11:00:00,5.0,-6.2,30.17,East,88,1.0,1.0,59,0.00,,---,0.00,311.00,VWS V14.00,2013-02-02 17:00:00,
2013-02-02 11:05:00,5.0,-6.2,30.17,North,356,3.0,3.0,59,0.00,,---,0.00,311.00,VWS V14.00,2013-02-02 17:05:00,
2013-02-02 11:10:00,5.0,-6.2,30.17,North,359,0.0,0.0,59,0.00,,---,0.00,368.00,VWS V14.00,2013-02-02 17:10:00,
2013-02-02 11:15:00,5.6,-5.6,30.17,NE,44,0.0,2.0,59,0.00,,---,0.00,368.00,VWS V14.00,2013-02-02 17:15:00,
2013-02-02 11:20:00,5.6,-5.6,30.17,South,174,0.0,0.0,59,0.00,,---,0.00,368.00,VWS V14.00,2013-02-02 17:20:00,
2013-02-02 11:25:00,6.3,-6.4,30.17,West,270,2.0,2.0,55,0.00,,---,0.00,368.00,VWS V14.00,2013-02-02 17:25:00,
2013-02-02 11:30:00,6.3,-6.4,30.16,NNW,328,1.0,1.0,55,0.00,,---,0.00,368.00,VWS V14.00,2013-02-02 17:30:00,
2013-02-02 11:35:00,6.5,-6.2,30.16,North,0,0.0,0.0,55,0.00,,---,0.00,368.00,VWS V14.00,2013-02-02 17:35:00,
2013-02-02 11:40:00,6.9,-5.8,30.16,NW,320,5.0,5.0,55,0.00,,---,0.00,368.00,VWS V14.00,2013-02-02 17:40:00,
2013-02-02 11:45:00,6.3,-6.8,30.16,SW,229,2.0,2.0,54,0.00,,---,0.00,306.00,VWS V14.00,2013-02-02 17:45:00,
2013-02-02 11:50:00,6.5,-6.2,30.16,West,264,0.0,1.0,55,0.00,,---,0.00,308.00,VWS V14.00,2013-02-02 17:50:00,
2013-02-02 11:55:00,7.0,-5.4,30.16,ESE,114,0.0,1.0,56,0.00,,---,0.00,308.00,VWS V14.00,2013-02-02 17:55:00,
2013-02-02 12:00:00,7.2,-5.2,30.15,South,189,0.0,0.0,56,0.00,,---,0.00,308.00,VWS V14.00,2013-02-02 18:00:00,
2013-02-02 12:05:00,7.4,-5.0,30.15,West,263,1.0,2.0,56,0.00,,---,0.00,308.00,VWS V14.00,2013-02-02 18:05:00,
2013-02-02 12:10:00,7.4,-6.1,30.15,West,260,2.0,3.0,53,0.00,,---,0.00,308.00,VWS V14.00,2013-02-02 18:10:00,
2013-02-02 12:15:00,6.9,-6.6,30.14,SSW,213,1.0,1.0,53,0.00,,---,0.00,308.00,VWS V14.00,2013-02-02 18:15:00,
2013-02-02 12:20:00,6.7,-6.4,30.14,WNW,302,2.0,2.0,54,0.00,,---,0.00,308.00,VWS V14.00,2013-02-02 18:20:00,
2013-02-02 12:25:00,6.7,-6.4,30.14,WSW,241,0.0,0.0,54,0.00,,---,0.00,310.00,VWS V14.00,2013-02-02 18:25:00,
2013-02-02 12:30:00,6.5,-6.6,30.14,SSW,192,0.0,0.0,54,0.00,,---,0.00,310.00,VWS V14.00,2013-02-02 18:30:00,
2013-02-02 12:35:00,7.0,-6.1,30.14,South,181,2.0,2.0,54,0.00,,---,0.00,310.00,VWS V14.00,2013-02-02 18:35:00,
2013-02-02 12:40:00,7.0,-6.1,30.14,SSW,196,1.0,1.0,54,0.00,,---,0.00,310.00,VWS V14.00,2013-02-02 18:40:00,
2013-02-02 12:45:00,7.7,-5.9,30.12,SSW,198,1.0,4.0,53,0.00,,---,0.00,310.00,VWS V14.00,2013-02-02 18:45:00,
2013-02-02 12:50:00,7.6,-5.9,30.12,SW,236,0.0,0.0,53,0.00,,---,0.00,310.00,VWS V14.00,2013-02-02 18:50:00,
2013-02-02 12:55:00,7.6,-5.9,30.12,West,272,2.0,2.0,53,0.00,,---,0.00,310.00,VWS V14.00,2013-02-02 18:55:00,
2013-02-02 13:00:00,8.3,-4.9,30.12,WNW,285,1.0,2.0,54,0.00,,---,0.00,271.00,VWS V14.00,2013-02-02 19:00:00,
2013-02-02 13:05:00,8.4,-4.8,30.12,WSW,240,0.0,0.0,54,0.00,,---,0.00,271.00,VWS V14.00,2013-02-02 19:05:00,
2013-02-02 13:10:00,8.8,-4.4,30.12,WSW,248,0.0,1.0,54,0.00,,---,0.00,271.00,VWS V14.00,2013-02-02 19:10:00,
2013-02-02 13:15:00,9.2,-4.1,30.11,West,280,2.0,2.0,54,0.00,,---,0.00,271.00,VWS V14.00,2013-02-02 19:15:00,
2013-02-02 13:20:00,9.2,-4.1,30.11,SSW,205,5.0,5.0,54,0.00,,---,0.00,220.00,VWS V14.00,2013-02-02 19:20:00,
2013-02-02 13:25:00,9.2,-4.4,30.11,SSE,162,1.0,2.0,53,0.00,,---,0.00,246.00,VWS V14.00,2013-02-02 19:25:00,
2013-02-02 13:30:00,9.2,-4.4,30.10,SSE,162,2.0,2.0,53,0.00,,---,0.00,262.00,VWS V14.00,2013-02-02 19:30:00,
2013-02-02 13:35:00,9.3,-4.4,30.10,WNW,282,2.0,2.0,53,0.00,,---,0.00,262.00,VWS V14.00,2013-02-02 19:35:00,
2013-02-02 13:40:00,9.3,-4.4,30.10,SW,234,1.0,2.0,53,0.00,,---,0.00,267.00,VWS V14.00,2013-02-02 19:40:00,
2013-02-02 13:45:00,9.7,-4.0,30.09,SSW,193,5.0,5.0,53,0.00,,---,0.00,267.00,VWS V14.00,2013-02-02 19:45:00,
2013-02-02 13:50:00,9.9,-3.4,30.09,WSW,248,3.0,5.0,54,0.00,,---,0.00,267.00,VWS V14.00,2013-02-02 19:50:00,
2013-02-02 13:55:00,9.7,-3.6,30.09,WSW,243,2.0,2.0,54,0.00,,---,0.00,267.00,VWS V14.00,2013-02-02 19:55:00,
2013-02-02 14:00:00,9.5,-4.2,30.09,SW,219,2.0,2.0,53,0.00,,---,0.00,267.00,VWS V14.00,2013-02-02 20:00:00,
2013-02-02 14:05:00,9.7,-3.6,30.09,SW,220,3.0,3.0,54,0.00,,---,0.00,267.00,VWS V14.00,2013-02-02 20:05:00,
2013-02-02 14:10:00,9.9,-3.4,30.09,SW,229,1.0,3.0,54,0.00,,---,0.00,215.00,VWS V14.00,2013-02-02 20:10:00,
2013-02-02 14:15:00,10.0,-3.3,30.07,South,169,3.0,3.0,54,0.00,,---,0.00,199.00,VWS V14.00,2013-02-02 20:15:00,
2013-02-02 14:20:00,10.0,-3.3,30.07,NW,306,2.0,2.0,54,0.00,,---,0.00,199.00,VWS V14.00,2013-02-02 20:20:00,
2013-02-02 14:25:00,10.0,-3.3,30.07,SSE,147,3.0,3.0,54,0.00,,---,0.00,220.00,VWS V14.00,2013-02-02 20:25:00,
2013-02-02 14:30:00,10.0,-3.3,30.07,South,169,0.0,0.0,54,0.00,,---,0.00,250.00,VWS V14.00,2013-02-02 20:30:00,
2013-02-02 14:35:00,10.0,-3.3,30.07,SSW,212,2.0,2.0,54,0.00,,---,0.00,250.00,VWS V14.00,2013-02-02 20:35:00,
2013-02-02 14:40:00,10.0,-3.3,30.07,SSW,195,1.0,1.0,54,0.00,,---,0.00,238.00,VWS V14.00,2013-02-02 20:40:00,
2013-02-02 14:45:00,10.2,-3.1,30.06,SE,128,1.0,1.0,54,0.00,,---,0.00,238.00,VWS V14.00,2013-02-02 20:45:00,
2013-02-02 14:50:00,10.4,-2.9,30.06,South,188,3.0,3.0,54,0.00,,---,0.00,239.00,VWS V14.00,2013-02-02 20:50:00,
2013-02-02 14:55:00,10.4,-2.9,30.06,SSE,157,1.0,1.0,54,0.00,,---,0.00,239.00,VWS V14.00,2013-02-02 20:55:00,
2013-02-02 15:00:00,10.4,-2.9,30.06,SW,236,0.0,1.0,54,0.00,,---,0.00,239.00,VWS V14.00,2013-02-02 21:00:00,
2013-02-02 15:05:00,10.9,-2.5,30.06,SW,223,1.0,1.0,54,0.00,,---,0.00,239.00,VWS V14.00,2013-02-02 21:05:00,
2013-02-02 15:10:00,10.9,-2.5,30.06,South,171,1.0,1.0,54,0.00,,---,0.00,239.00,VWS V14.00,2013-02-02 21:10:00,
2013-02-02 15:15:00,11.2,-2.2,30.06,SSW,208,3.0,3.0,54,0.00,,---,0.00,239.00,VWS V14.00,2013-02-02 21:15:00,
2013-02-02 15:20:00,11.2,-2.2,30.06,SSW,206,2.0,2.0,54,0.00,,---,0.00,239.00,VWS V14.00,2013-02-02 21:20:00,
2013-02-02 15:25:00,11.6,-1.8,30.06,SSW,206,5.0,5.0,54,0.00,,---,0.00,239.00,VWS V14.00,2013-02-02 21:25:00,
2013-02-02 15:30:00,11.6,-1.8,30.05,South,178,0.0,0.0,54,0.00,,---,0.00,239.00,VWS V14.00,2013-02-02 21:30:00,
2013-02-02 15:35:00,11.6,-1.8,30.05,South,178,2.0,2.0,54,0.00,,---,0.00,239.00,VWS V14.00,2013-02-02 21:35:00,
2013-02-02 15:40:00,11.6,-1.8,30.05,West,270,0.0,3.0,54,0.00,,---,0.00,239.00,VWS V14.00,2013-02-02 21:40:00,
2013-02-02 15:45:00,11.6,-1.8,30.05,South,185,2.0,2.0,54,0.00,,---,0.00,53.00,VWS V14.00,2013-02-02 21:45:00,
2013-02-02 15:50:00,11.6,-1.8,30.05,SE,128,1.0,1.0,54,0.00,,---,0.00,74.00,VWS V14.00,2013-02-02 21:50:00,
2013-02-02 15:55:00,11.7,-1.7,30.05,SW,232,2.0,3.0,54,0.00,,---,0.00,74.00,VWS V14.00,2013-02-02 21:55:00,
2013-02-02 16:00:00,11.9,-1.5,30.04,WSW,240,2.0,2.0,54,0.00,,---,0.00,178.00,VWS V14.00,2013-02-02 22:00:00,
2013-02-02 16:05:00,11.9,-1.5,30.04,SW,229,2.0,2.0,54,0.00,,---,0.00,178.00,VWS V14.00,2013-02-02 22:05:00,
2013-02-02 16:10:00,11.9,-1.5,30.04,SSW,196,2.0,2.0,54,0.00,,---,0.00,178.00,VWS V14.00,2013-02-02 22:10:00,
2013-02-02 16:15:00,11.9,-1.5,30.04,SSW,199,3.0,3.0,54,0.00,,---,0.00,178.00,VWS V14.00,2013-02-02 22:15:00,
2013-02-02 16:20:00,11.6,-1.8,30.04,SSW,203,2.0,2.0,54,0.00,,---,0.00,178.00,VWS V14.00,2013-02-02 22:20:00,
2013-02-02 16:25:00,11.6,-1.8,30.04,SSE,154,3.0,3.0,54,0.00,,---,0.00,178.00,VWS V14.00,2013-02-02 22:25:00,
2013-02-02 16:30:00,11.6,-1.8,30.03,SSE,150,0.0,0.0,54,0.00,,---,0.00,178.00,VWS V14.00,2013-02-02 22:30:00,
2013-02-02 16:35:00,11.6,-1.8,30.03,WSW,240,1.0,1.0,54,0.00,,---,0.00,58.00,VWS V14.00,2013-02-02 22:35:00,
2013-02-02 16:40:00,11.6,-1.8,30.03,SE,143,0.0,0.0,54,0.00,,---,0.00,58.00,VWS V14.00,2013-02-02 22:40:00,
2013-02-02 16:45:00,11.1,-1.5,30.03,South,188,0.0,0.0,56,0.00,,---,0.00,58.00,VWS V14.00,2013-02-02 22:45:00,
2013-02-02 16:50:00,11.1,-1.5,30.03,SSW,199,2.0,2.0,56,0.00,,---,0.00,37.00,VWS V14.00,2013-02-02 22:50:00,
2013-02-02 16:55:00,10.7,-1.5,30.03,SSE,165,1.0,1.0,57,0.00,,---,0.00,37.00,VWS V14.00,2013-02-02 22:55:00,
2013-02-02 17:00:00,10.5,-1.7,30.03,SSE,165,2.0,2.0,57,0.00,,---,0.00,30.00,VWS V14.00,2013-02-02 23:00:00,
2013-02-02 17:05:00,10.5,-1.7,30.03,South,178,1.0,1.0,57,0.00,,---,0.00,30.00,VWS V14.00,2013-02-02 23:05:00,
2013-02-02 17:10:00,10.4,-1.4,30.03,South,182,1.0,1.0,58,0.00,,---,0.00,0.00,VWS V14.00,2013-02-02 23:10:00,
2013-02-02 17:15:00,10.4,-1.4,30.03,SSW,212,2.0,3.0,58,0.00,,---,0.00,0.00,VWS V14.00,2013-02-02 23:15:00,
2013-02-02 17:20:00,10.4,-1.4,30.03,WSW,241,1.0,2.0,58,0.00,,---,0.00,0.00,VWS V14.00,2013-02-02 23:20:00,
2013-02-02 17:25:00,10.4,-1.1,30.03,South,178,0.0,0.0,59,0.00,,---,0.00,0.00,VWS V14.00,2013-02-02 23:25:00,
2013-02-02 17:30:00,10.4,-1.1,30.02,SSE,160,1.0,1.0,59,0.00,,---,0.00,0.00,VWS V14.00,2013-02-02 23:30:00,
2013-02-02 17:35:00,10.2,-1.3,30.02,South,181,2.0,2.0,59,0.00,,---,0.00,0.00,VWS V14.00,2013-02-02 23:35:00,
2013-02-02 17:40:00,10.2,-1.3,30.02,SSE,160,0.0,0.0,59,0.00,,---,0.00,0.00,VWS V14.00,2013-02-02 23:40:00,
2013-02-02 17:45:00,10.2,-1.3,30.02,South,186,1.0,3.0,59,0.00,,---,0.00,0.00,VWS V14.00,2013-02-02 23:45:00,
2013-02-02 17:50:00,10.0,-1.1,30.02,South,174,0.0,1.0,60,0.00,,---,0.00,0.00,VWS V14.00,2013-02-02 23:50:00,
2013-02-02 17:55:00,10.0,-1.1,30.02,SSW,199,2.0,3.0,60,0.00,,---,0.00,0.00,VWS V14.00,2013-02-02 23:55:00,
2013-02-02 18:00:00,10.0,-0.8,30.02,SW,226,0.0,0.0,61,0.00,,---,0.00,0.00,VWS V14.00,2013-02-03 00:00:00,
2013-02-02 18:05:00,10.0,-0.4,30.02,SW,220,1.0,1.0,62,0.00,,---,0.00,0.00,VWS V14.00,2013-02-03 00:05:00,
2013-02-02 18:10:00,9.9,-0.5,30.02,SSW,202,1.0,1.0,62,0.00,,---,0.00,0.00,VWS V14.00,2013-02-03 00:10:00,
2013-02-02 18:15:00,9.7,-0.7,30.02,WSW,248,4.0,5.0,62,0.00,,---,0.00,0.00,VWS V14.00,2013-02-03 00:15:00,
2013-02-02 18:20:00,9.7,-0.7,30.02,WSW,241,1.0,1.0,62,0.00,,---,0.00,0.00,VWS V14.00,2013-02-03 00:20:00,
2013-02-02 18:25:00,9.7,-0.7,30.02,SSW,200,1.0,1.0,62,0.00,,---,0.00,0.00,VWS V14.00,2013-02-03 00:25:00,
2013-02-02 18:30:00,9.7,-0.7,30.01,WSW,239,2.0,2.0,62,0.00,,---,0.00,0.00,VWS V14.00,2013-02-03 00:30:00,
2013-02-02 18:35:00,9.7,-0.7,30.01,SSW,210,2.0,2.0,62,0.00,,---,0.00,0.00,VWS V14.00,2013-02-03 00:35:00,
2013-02-02 18:40:00,9.5,1.1,30.01,SSW,206,4.0,6.0,68,0.00,,---,0.00,0.00,VWS V14.00,2013-02-03 00:40:00,
2013-02-02 18:45:00,9.3,1.2,30.01,SSW,200,1.0,1.0,69,0.00,,---,0.00,0.00,VWS V14.00,2013-02-03 00:45:00,
2013-02-02 18:50:00,9.3,1.2,30.01,SSE,162,1.0,1.0,69,0.00,,---,0.00,0.00,VWS V14.00,2013-02-03 00:50:00,
2013-02-02 18:55:00,9.3,1.8,30.01,South,171,3.0,3.0,71,0.00,,---,0.00,0.00,VWS V14.00,2013-02-03 00:55:00,
2013-02-02 19:00:00,9.2,1.7,30.00,WSW,243,0.0,0.0,71,0.00,,---,0.00,0.00,VWS V14.00,2013-02-03 01:00:00,
2013-02-02 19:04:00,9.0,1.8,30.00,SSW,210,1.0,1.0,72,0.00,,---,0.00,0.00,VWS V14.00,2013-02-03 01:04:00,
2013-02-02 19:09:00,9.0,2.1,30.00,South,172,0.0,0.0,73,0.00,,---,0.00,0.00,VWS V14.00,2013-02-03 01:09:00,
2013-02-02 19:14:00,9.0,2.1,30.00,South,186,0.0,0.0,73,0.00,,---,0.00,0.00,VWS V14.00,2013-02-03 01:14:00,
2013-02-02 19:19:00,9.0,2.1,30.00,SW,226,1.0,1.0,73,0.00,,---,0.00,0.00,VWS V14.00,2013-02-03 01:19:00,
2013-02-02 19:24:00,9.0,2.1,30.00,SSW,202,2.0,2.0,73,0.00,,---,0.00,0.00,VWS V14.00,2013-02-03 01:24:00,
2013-02-02 19:29:00,9.0,2.1,30.00,SSW,205,0.0,0.0,73,0.00,,---,0.00,0.00,VWS V14.00,2013-02-03 01:29:00,
2013-02-02 19:34:00,9.0,2.1,30.00,SSW,203,1.0,1.0,73,0.00,,---,0.00,0.00,VWS V14.00,2013-02-03 01:34:00,
2013-02-02 19:39:00,9.0,2.1,30.00,SSW,203,1.0,1.0,73,0.00,,---,0.00,0.00,VWS V14.00,2013-02-03 01:39:00,
2013-02-02 19:44:00,9.0,3.0,29.99,South,169,3.0,3.0,76,0.00,,---,0.00,0.00,VWS V14.00,2013-02-03 01:44:00,
2013-02-02 19:49:00,9.0,3.0,29.99,SSE,168,0.0,0.0,76,0.00,,---,0.00,0.00,VWS V14.00,2013-02-03 01:49:00,
2013-02-02 19:54:00,9.2,3.2,29.99,SSE,168,0.0,0.0,76,0.00,,---,0.00,0.00,VWS V14.00,2013-02-03 01:54:00,
2013-02-02 19:59:00,9.0,3.0,29.99,South,179,1.0,1.0,76,0.00,,---,0.00,0.00,VWS V14.00,2013-02-03 01:59:00,
2013-02-02 20:04:00,9.2,3.2,29.99,South,179,0.0,0.0,76,0.00,,---,0.00,0.00,VWS V14.00,2013-02-03 02:04:00,
2013-02-02 20:09:00,9.2,3.5,29.99,SSE,165,1.0,1.0,77,0.00,,---,0.00,0.00,VWS V14.00,2013-02-03 02:09:00,
2013-02-02 20:14:00,9.2,3.5,29.98,SSE,148,1.0,1.0,77,0.00,,---,0.00,0.00,VWS V14.00,2013-02-03 02:14:00,
2013-02-02 20:19:00,9.2,3.5,29.98,South,171,1.0,1.0,77,0.00,,---,0.00,0.00,VWS V14.00,2013-02-03 02:19:00,
2013-02-02 20:24:00,9.2,3.5,29.98,SSE,157,1.0,1.0,77,0.00,,---,0.00,0.00,VWS V14.00,2013-02-03 02:24:00,
2013-02-02 20:29:00,9.2,3.5,29.98,SSE,162,0.0,1.0,77,0.00,,---,0.00,0.00,VWS V14.00,2013-02-03 02:29:00,
2013-02-02 20:34:00,9.2,3.5,29.98,SSE,162,0.0,0.0,77,0.00,,---,0.00,0.00,VWS V14.00,2013-02-03 02:34:00,
2013-02-02 20:39:00,9.2,3.5,29.98,SSE,162,1.0,1.0,77,0.00,,---,0.00,0.00,VWS V14.00,2013-02-03 02:39:00,
2013-02-02 20:44:00,9.2,3.7,29.97,ESE,114,1.0,1.0,78,0.00,,---,0.00,0.00,VWS V14.00,2013-02-03 02:44:00,
2013-02-02 20:49:00,9.3,3.8,29.97,SE,124,3.0,3.0,78,0.00,,---,0.00,0.00,VWS V14.00,2013-02-03 02:49:00,
2013-02-02 20:54:00,9.3,3.8,29.97,ESE,116,0.0,0.0,78,0.00,,---,0.00,0.00,VWS V14.00,2013-02-03 02:54:00,
2013-02-02 20:59:00,9.5,4.0,29.97,ESE,114,1.0,1.0,78,0.00,,---,0.00,0.00,VWS V14.00,2013-02-03 02:59:00,
2013-02-02 21:04:00,9.5,4.0,29.97,ESE,119,1.0,1.0,78,0.00,,---,0.00,0.00,VWS V14.00,2013-02-03 03:04:00,
2013-02-02 21:09:00,9.5,4.0,29.97,ESE,113,0.0,0.0,78,0.00,,---,0.00,0.00,VWS V14.00,2013-02-03 03:09:00,
2013-02-02 21:14:00,9.7,4.2,29.97,SE,124,1.0,1.0,78,0.00,,---,0.00,0.00,VWS V14.00,2013-02-03 03:14:00,
2013-02-02 21:19:00,9.7,4.2,29.97,ESE,123,0.0,0.0,78,0.00,,---,0.00,0.00,VWS V14.00,2013-02-03 03:19:00,
2013-02-02 21:24:00,9.7,4.2,29.97,SE,124,0.0,0.0,78,0.00,,---,0.00,0.00,VWS V14.00,2013-02-03 03:24:00,
2013-02-02 21:29:00,9.7,4.2,29.98,SE,124,0.0,0.0,78,0.00,,---,0.00,0.00,VWS V14.00,2013-02-03 03:29:00,
2013-02-02 21:34:00,9.7,4.2,29.98,SE,124,0.0,0.0,78,0.00,,---,0.00,0.00,VWS V14.00,2013-02-03 03:34:00,
2013-02-02 21:39:00,9.7,4.2,29.98,SE,124,0.0,0.0,78,0.00,,---,0.00,0.00,VWS V14.00,2013-02-03 03:39:00,
2013-02-02 21:44:00,9.9,4.4,29.97,SE,124,0.0,0.0,78,0.00,,---,0.00,0.00,VWS V14.00,2013-02-03 03:44:00,
2013-02-02 21:49:00,9.9,4.4,29.97,SE,124,0.0,0.0,78,0.00,,---,0.00,0.00,VWS V14.00,2013-02-03 03:49:00,
2013-02-02 21:54:00,9.9,4.4,29.97,SE,124,0.0,0.0,78,0.00,,---,0.00,0.00,VWS V14.00,2013-02-03 03:54:00,
2013-02-02 21:59:00,9.9,4.4,29.97,SE,124,0.0,0.0,78,0.00,,---,0.00,0.00,VWS V14.00,2013-02-03 03:59:00,
2013-02-02 22:04:00,9.9,4.4,29.97,SE,124,0.0,0.0,78,0.00,,---,0.00,0.00,VWS V14.00,2013-02-03 04:04:00,
2013-02-02 22:09:00,9.9,4.4,29.97,SE,124,0.0,0.0,78,0.00,,---,0.00,0.00,VWS V14.00,2013-02-03 04:09:00,
2013-02-02 22:14:00,9.7,4.2,29.97,SE,124,0.0,0.0,78,0.00,,---,0.00,0.00,VWS V14.00,2013-02-03 04:14:00,
2013-02-02 22:19:00,9.7,4.2,29.97,SE,124,0.0,0.0,78,0.00,,---,0.00,0.00,VWS V14.00,2013-02-03 04:19:00,
2013-02-02 22:24:00,9.7,4.2,29.97,SE,124,0.0,0.0,78,0.00,,---,0.00,0.00,VWS V14.00,2013-02-03 04:24:00,
2013-02-02 22:29:00,9.9,4.4,29.96,ESE,123,0.0,0.0,78,0.00,,---,0.00,0.00,VWS V14.00,2013-02-03 04:29:00,
2013-02-02 22:34:00,9.7,4.2,29.96,ESE,116,1.0,1.0,78,0.00,,---,0.00,0.00,VWS V14.00,2013-02-03 04:34:00,
2013-02-02 22:39:00,9.7,4.2,29.96,East,83,0.0,0.0,78,0.00,,---,0.00,0.00,VWS V14.00,2013-02-03 04:39:00,
2013-02-02 22:44:00,9.5,4.0,29.96,East,83,0.0,0.0,78,0.00,,---,0.00,0.00,VWS V14.00,2013-02-03 04:44:00,
2013-02-02 22:49:00,9.5,4.0,29.96,East,80,0.0,1.0,78,0.00,,---,0.00,0.00,VWS V14.00,2013-02-03 04:49:00,
2013-02-02 22:54:00,9.5,4.0,29.96,East,80,0.0,0.0,78,0.00,,---,0.00,0.00,VWS V14.00,2013-02-03 04:54:00,
2013-02-02 22:59:00,9.7,4.5,29.96,East,80,0.0,0.0,79,0.00,,---,0.00,0.00,VWS V14.00,2013-02-03 04:59:00,
2013-02-02 23:00:00,9.7,4.5,29.96,East,80,0.0,0.0,79,0.00,,---,0.00,0.00,VWS V14.00,2013-02-03 05:00:00,
2013-02-02 23:01:00,9.7,4.5,29.96,East,80,0.0,0.0,79,0.00,,---,0.00,0.00,VWS V14.00,2013-02-03 05:01:00,
2013-02-02 23:06:00,9.7,4.5,29.96,East,80,0.0,0.0,79,0.00,,---,0.00,0.00,VWS V14.00,2013-02-03 05:06:00,
2013-02-02 23:11:00,9.7,4.5,29.96,East,80,0.0,0.0,79,0.00,,---,0.00,0.00,VWS V14.00,2013-02-03 05:11:00,
2013-02-02 23:16:00,9.7,4.2,29.96,East,80,0.0,0.0,78,0.00,,---,0.00,0.00,VWS V14.00,2013-02-03 05:16:00,
2013-02-02 23:21:00,9.7,4.2,29.96,East,80,0.0,0.0,78,0.00,,---,0.00,0.00,VWS V14.00,2013-02-03 05:21:00,
2013-02-02 23:26:00,9.7,4.2,29.96,East,80,0.0,0.0,78,0.00,,---,0.00,0.00,VWS V14.00,2013-02-03 05:26:00,
2013-02-02 23:31:00,9.5,4.0,29.96,East,80,0.0,0.0,78,0.00,,---,0.00,0.00,VWS V14.00,2013-02-03 05:31:00,
2013-02-02 23:36:00,9.5,4.0,29.96,East,80,0.0,0.0,78,0.00,,---,0.00,0.00,VWS V14.00,2013-02-03 05:36:00,
2013-02-02 23:41:00,9.5,4.0,29.96,North,0,0.0,1.0,78,0.00,,---,0.00,0.00,VWS V14.00,2013-02-03 05:41:00,
2013-02-02 23:46:00,9.5,4.3,29.97,North,0,0.0,1.0,79,0.00,,---,0.00,0.00,VWS V14.00,2013-02-03 05:46:00,
2013-02-02 23:51:00,9.5,4.3,29.97,North,0,0.0,0.0,79,0.00,,---,0.00,0.00,VWS V14.00,2013-02-03 05:51:00,
2013-02-02 23:56:00,9.5,4.3,29.97,WNW,301,1.0,1.0,79,0.00,,---,0.00,0.00,VWS V14.00,2013-02-03 05:56:00,